Torna al catalogo

STARLINK-31085

AttivoComunicazioniVLEO
NORAD 58609·PAYLOAD·🇺🇸 United States

Lanciato Dec 19, 2023 da Cape Canaveral Space Force Station

Loading…

Prossimi Passaggi (prossime 24 ore)

TLE

AggiornatoSource: CelesTrak SupGP

Epoca: Sep 15, 2026, 01:57 UTC

1 58609C 23200W   26258.08173611  .00014541  00000+0  52674-3 0  2584
2 58609  42.9991 179.3756 0001395 272.4087 119.8420 15.27568026    18

Traccia STARLINK-31085 in tempo reale con AllMySat

Download on the App Store